EW9366 Weather Reports


Display with metric or nautical units.
time (UTC)temp
F
wind
direction
speed
MPH
gust
MPH
rain 1hr
in
rain 24hr
in
rain mn
in
humidity
%
barometer
mb
20260831092511 74 141 0.0 0.0 0.00 0.00 0.00 73 1016.2
20260831092012 74 141 0.0 0.0 0.00 0.00 0.00 72 1016.1
20260831091446 74 141 0.0 0.0 0.00 0.00 0.00 72 1016.1
20260831091437 75 141 0.0 0.0 0.00 0.00 0.00 71 1016.2
20260831090923 75 141 0.0 0.0 0.00 0.00 0.00 70 1016.1
20260831085936 75 141 0.0 1.0 0.00 0.00 0.00 70 1016.0
20260831085417 74 141 0.0 1.0 0.00 0.00 0.00 70 1016.0
20260831084850 74 141 0.0 1.0 0.00 0.00 0.00 70 1016.0
20260831084328 74 141 0.0 0.0 0.00 0.00 0.00 69 1016.0
20260831083827 74 141 0.0 0.0 0.00 0.00 0.00 69 1015.9
20260831083327 75 141 0.0 0.0 0.00 0.00 0.00 69 1015.9
20260831082829 75 148 0.0 0.0 0.00 0.00 0.00 68 1015.9
20260831082315 74 148 0.0 0.0 0.00 0.00 0.00 68 1015.9
20260831081749 74 148 0.0 0.0 0.00 0.00 0.00 68 1015.9
20260831081221 74 148 0.0 0.0 0.00 0.00 0.00 69 1015.8
20260831080704 74 162 0.0 0.0 0.00 0.00 0.00 69 1015.8
20260831080200 74 162 0.0 0.0 0.00 0.00 0.00 69 1015.7
20260831075636 74 162 0.0 0.0 0.00 0.00 0.00 68 1015.7
20260831075110 74 162 0.0 0.0 0.00 0.00 0.00 68 1015.7
20260831074604 74 162 0.0 0.0 0.00 0.00 0.00 68 1015.8
20260831074100 74 162 0.0 0.0 0.00 0.00 0.00 68 1015.7
20260831073556 75 162 0.0 0.0 0.00 0.00 0.00 66 1015.7
20260831073058 75 162 0.0 0.0 0.00 0.00 0.00 66 1015.9
20260831072534 75 161 0.0 0.0 0.00 0.00 0.00 65 1015.9
20260831072013 75 161 0.0 0.0 0.00 0.00 0.00 65 1015.8
20260831071515 75 162 0.0 0.0 0.00 0.00 0.00 66 1015.9
20260831070951 76 162 0.0 0.0 0.00 0.00 0.00 64 1015.8
20260831070445 76 162 0.0 0.0 0.00 0.00 0.00 63 1015.8
20260831065944 76 162 0.0 0.0 0.00 0.00 0.00 64 1015.9
20260831065429 76 162 0.0 0.0 0.00 0.00 0.00 64 1016.0
20260831064926 76 162 0.0 0.0 0.00 0.00 0.00 63 1016.0
20260831064413 77 162 0.0 0.0 0.00 0.00 0.00 63 1016.0
20260831063909 76 162 0.0 0.0 0.00 0.00 0.00 63 1016.0
20260831063409 77 176 0.0 0.0 0.00 0.00 0.00 62 1016.1
20260831062907 77 176 0.0 0.0 0.00 0.00 0.00 62 1016.0
20260831062413 77 176 0.0 0.0 0.00 0.00 0.00 61 1016.1
20260831062407 77 176 0.0 0.0 0.00 0.00 0.00 62 1016.1
20260831061404 78 176 0.0 0.0 0.00 0.00 0.00 61 1016.0
20260831060901 78 170 0.0 0.0 0.00 0.00 0.00 61 1016.0
20260831060847 78 174 0.0 0.0 0.00 0.00 0.00 60 1016.1
20260831055854 78 174 0.0 0.0 0.00 0.00 0.00 60 1016.1
20260831055333 78 174 0.0 0.0 0.00 0.00 0.00 60 1016.0
20260831054816 78 173 0.0 0.0 0.00 0.00 0.00 60 1016.1
20260831054750 78 173 0.0 1.0 0.00 0.00 0.00 59 1016.1
20260831053808 78 131 0.0 1.0 0.00 0.00 0.00 59 1016.0
20260831053756 79 131 0.0 1.0 0.00 0.00 0.00 59 1016.0
20260831053233 79 131 0.0 1.0 0.00 0.00 0.00 58 1016.0
20260831052245 79 114 0.0 1.0 0.00 0.00 0.00 58 1015.9
20260831051746 79 129 0.0 1.0 0.00 0.00 0.00 59 1015.8
20260831051217 79 165 0.0 2.0 0.00 0.00 0.00 59 1015.9
20260831051204 79 109 0.0 2.0 0.00 0.00 0.00 59 1015.8
20260831050158 79 85 0.0 1.0 0.00 0.00 0.00 60 1015.7
20260831045916 79 308 0.0 1.0 0.00 0.00 0.00 60 1015.7
20260831045704 79 308 0.0 1.0 0.00 0.00 0.00 60 1015.7
20260831045635 80 153 0.0 1.0 0.00 0.00 0.00 60 1015.7
20260831044620 80 127 0.0 1.0 0.00 0.00 0.00 60 1015.6
20260831044119 80 134 0.0 1.0 0.00 0.00 0.00 60 1015.6
20260831043550 80 185 0.0 1.0 0.00 0.00 0.00 59 1015.6
20260831043048 81 127 0.0 2.0 0.00 0.00 0.00 59 1015.7
20260831042524 81 132 0.0 2.0 0.00 0.00 0.00 59 1015.6
20260831041954 82 194 0.0 1.0 0.00 0.00 0.00 59 1015.5
20260831041651 82 123 1.0 3.0 0.00 0.00 0.00 58 1015.6
20260831041644 82 134 0.0 3.0 0.00 0.00 0.00 58 1015.6
20260831040428 82 137 1.0 4.0 0.00 0.00 0.00 58 1015.6
20260831035859 83 117 1.0 4.0 0.00 0.00 0.00 58 1015.4
20260831035357 83 122 1.0 4.0 0.00 0.00 0.00 58 1015.4
20260831034827 83 81 0.0 3.0 0.00 0.00 0.00 58 1015.3
20260831034322 83 143 1.0 4.0 0.00 0.00 0.00 57 1015.4
20260831033818 83 109 1.0 4.0 0.00 0.00 0.00 57 1015.3
20260831033312 83 158 1.0 3.0 0.00 0.00 0.00 57 1015.2
20260831032811 83 141 1.0 3.0 0.00 0.00 0.00 57 1015.3
20260831032259 83 70 1.0 5.0 0.00 0.00 0.00 57 1015.3
20260831031732 84 101 1.0 5.0 0.00 0.00 0.00 57 1015.2
20260831031204 84 156 1.0 3.0 0.00 0.00 0.00 56 1015.2
20260831030702 84 89 1.0 3.0 0.00 0.00 0.00 56 1015.2
20260831030635 84 1 1.0 4.0 0.00 0.00 0.00 57 1015.2
20260831025632 84 116 0.0 4.0 0.00 0.00 0.00 56 1015.2
20260831025105 84 357 1.0 5.0 0.00 0.00 0.00 55 1015.1
20260831025011 85 213 1.0 6.0 0.00 0.00 0.00 55 1015.1
20260831024034 85 132 1.0 6.0 0.00 0.00 0.00 55 1015.0
20260831023506 85 335 0.0 3.0 0.00 0.00 0.00 54 1015.1
20260831023448 85 34 0.0 2.0 0.00 0.00 0.00 53 1015.0
20260831022925 85 126 0.0 2.0 0.00 0.00 0.00 53 1015.0
20260831022415 84 89 0.0 1.0 0.00 0.00 0.00 53 1014.9
20260831021425 84 139 0.0 3.0 0.00 0.00 0.00 53 1014.8
20260831020857 84 181 0.0 3.0 0.00 0.00 0.00 53 1014.8
20260831020352 84 266 0.0 2.0 0.00 0.00 0.00 52 1014.7
20260831015853 84 92 0.0 0.0 0.00 0.00 0.00 52 1014.7
20260831015327 85 92 0.0 1.0 0.00 0.00 0.00 51 1014.6
20260831014820 85 92 0.0 1.0 0.00 0.00 0.00 51 1014.3
20260831014319 85 92 0.0 1.0 0.00 0.00 0.00 50 1014.1
20260831013752 85 92 0.0 1.0 0.00 0.00 0.00 51 1014.0
20260831013249 85 95 0.0 1.0 0.00 0.00 0.00 50 1013.9
20260831012745 86 75 0.0 1.0 0.00 0.00 0.00 50 1013.9
20260831012236 86 75 0.0 1.0 0.00 0.00 0.00 49 1013.9
20260831011732 87 131 0.0 1.0 0.00 0.00 0.00 48 1013.9
20260831011207 87 131 0.0 2.0 0.00 0.00 0.00 47 1013.8
20260831010701 87 136 0.0 2.0 0.00 0.00 0.00 46 1013.8
20260831010132 88 134 0.0 0.0 0.00 0.00 0.00 45 1013.8
20260831005631 89 134 0.0 0.0 0.00 0.00 0.00 45 1013.7
20260831005550 90 134 0.0 0.0 0.00 0.00 0.00 44 1013.8
20260831004600 91 134 0.0 1.0 0.00 0.00 0.00 42 1013.8
20260831004031 92 134 0.0 1.0 0.00 0.00 0.00 41 1013.9
20260831004012 94 134 0.0 1.0 0.00 0.00 0.00 39 1014.0
20260831003023 94 134 0.0 1.0 0.00 0.00 0.00 38 1013.9
20260831002449 95 134 0.0 1.0 0.00 0.00 0.00 37 1013.9
20260831001948 95 131 0.0 1.0 0.00 0.00 0.00 37 1013.9
20260831001932 96 131 0.0 1.0 0.00 0.00 0.00 37 1013.9
20260831000929 96 131 0.0 2.0 0.00 0.00 0.00 37 1013.9
20260831000903 96 168 0.0 2.0 0.00 0.00 0.00 37 1013.9
20260830235929 96 143 0.0 1.0 0.00 0.00 0.00 37 1013.9
20260830235433 95 174 0.0 1.0 0.00 0.00 0.00 36 1014.0
20260830234904 96 139 0.0 2.0 0.00 0.00 0.00 36 1014.1
20260830234400 96 130 0.0 4.0 0.00 0.00 0.00 36 1014.1
20260830233901 97 203 1.0 4.0 0.00 0.00 0.00 35 1014.1
20260830233334 98 139 1.0 4.0 0.00 0.00 0.00 34 1014.0
20260830232826 99 152 1.0 4.0 0.00 0.00 0.00 34 1014.2
20260830232325 99 156 1.0 3.0 0.00 0.00 0.00 34 1014.1
20260830231828 99 195 1.0 3.0 0.00 0.00 0.00 34 1014.1
20260830231254 99 214 1.0 3.0 0.00 0.00 0.00 34 1014.1
20260830230753 99 200 1.0 3.0 0.00 0.00 0.00 34 1014.0
20260830230229 99 178 1.0 3.0 0.00 0.00 0.00 34 1014.1
20260830230157 99 210 1.0 2.0 0.00 0.00 0.00 34 1014.0
20260830225138 99 184 1.0 4.0 0.00 0.00 0.00 34 1014.0
20260830224612 99 113 1.0 4.0 0.00 0.00 0.00 34 1014.0
20260830224108 99 207 1.0 3.0 0.00 0.00 0.00 34 1013.9
20260830224051 99 212 1.0 5.0 0.00 0.00 0.00 34 1013.9
20260830223104 99 193 1.0 5.0 0.00 0.00 0.00 33 1013.9
20260830223051 99 125 1.0 5.0 0.00 0.00 0.00 34 1013.9
20260830222038 99 130 2.0 5.0 0.00 0.00 0.00 34 1014.0
20260830221530 98 186 1.0 5.0 0.00 0.00 0.00 34 1014.0
20260830221029 99 140 1.0 5.0 0.00 0.00 0.00 33 1014.0
20260830221024 99 192 1.0 5.0 0.00 0.00 0.00 34 1014.1
20260830220029 99 177 1.0 5.0 0.00 0.00 0.00 33 1014.1
20260830215946 99 146 1.0 4.0 0.00 0.00 0.00 35 1014.2
20260830215003 100 132 1.0 5.0 0.00 0.00 0.00 34 1014.1
20260830214501 100 206 1.0 5.0 0.00 0.00 0.00 34 1014.3
20260830214001 100 213 1.0 4.0 0.00 0.00 0.00 34 1014.6
20260830213440 100 180 2.0 6.0 0.00 0.00 0.00 31 1014.7
20260830212914 100 131 2.0 6.0 0.00 0.00 0.00 32 1014.6
20260830212416 101 117 1.0 5.0 0.00 0.00 0.00 31 1014.5
20260830212338 101 189 1.0 3.0 0.00 0.00 0.00 34 1014.6
20260830211342 101 137 2.0 5.0 0.00 0.00 0.00 33 1014.5
20260830210841 101 168 2.0 5.0 0.00 0.00 0.00 32 1014.6
20260830210326 101 124 2.0 6.0 0.00 0.00 0.00 33 1014.7
20260830205824 101 191 3.0 6.0 0.00 0.00 0.00 32 1014.8
20260830205322 102 198 2.0 6.0 0.00 0.00 0.00 32 1014.7
20260830204818 102 200 2.0 6.0 0.00 0.00 0.00 31 1014.8
20260830204317 103 120 2.0 4.0 0.00 0.00 0.00 31 1014.8
20260830203756 103 185 1.0 4.0 0.00 0.00 0.00 32 1014.9
20260830203226 102 194 2.0 4.0 0.00 0.00 0.00 33 1014.9
20260830202722 102 123 2.0 4.0 0.00 0.00 0.00 34 1014.9
20260830202219 103 136 2.0 6.0 0.00 0.00 0.00 32 1015.0
20260830201653 103 187 2.0 6.0 0.00 0.00 0.00 33 1015.1
20260830201127 103 155 2.0 6.0 0.00 0.00 0.00 33 1015.1
20260830201112 103 199 2.0 6.0 0.00 0.00 0.00 33 1015.2
20260830200056 103 210 2.0 6.0 0.00 0.00 0.00 34 1015.0
20260830200051 102 179 2.0 6.0 0.00 0.00 0.00 34 1015.2
20260830195033 102 169 2.0 5.0 0.00 0.00 0.00 35 1015.3
20260830194508 103 144 1.0 5.0 0.00 0.00 0.00 33 1015.3
20260830193942 102 224 1.0 4.0 0.00 0.00 0.00 35 1015.3
20260830193440 101 165 2.0 12.0 0.00 0.00 0.00 37 1015.3
20260830193402 101 261 3.0 12.0 0.00 0.00 0.00 36 1015.4
20260830192351 102 241 3.0 8.0 0.00 0.00 0.00 36 1015.5
20260830191823 101 192 2.0 7.0 0.00 0.00 0.00 35 1015.6
20260830191255 101 267 2.0 6.0 0.00 0.00 0.00 36 1015.6
20260830190748 100 210 3.0 11.0 0.00 0.00 0.00 37 1015.7
20260830190251 100 286 3.0 10.0 0.00 0.00 0.00 37 1015.6
20260830185730 101 243 1.0 7.0 0.00 0.00 0.00 37 1015.7
20260830185229 101 129 2.0 6.0 0.00 0.00 0.00 37 1015.8
20260830185211 100 150 1.0 6.0 0.00 0.00 0.00 36 1015.8
20260830184658 101 131 1.0 4.0 0.00 0.00 0.00 37 1015.8
20260830183646 100 197 1.0 7.0 0.00 0.00 0.00 37 1015.9
20260830183123 100 207 2.0 7.0 0.00 0.00 0.00 36 1016.0
20260830182607 101 200 2.0 4.0 0.00 0.00 0.00 36 1016.1
20260830182549 101 153 2.0 4.0 0.00 0.00 0.00 36 1016.1
20260830181605 101 208 2.0 5.0 0.00 0.00 0.00 37 1016.1
20260830181104 101 158 2.0 5.0 0.00 0.00 0.00 36 1016.2
20260830180542 101 141 2.0 4.0 0.00 0.00 0.00 36 1016.2
20260830180040 102 181 2.0 4.0 0.00 0.00 0.00 35 1016.2
20260830175540 101 190 2.0 5.0 0.00 0.00 0.00 37 1016.5
20260830175023 101 194 2.0 5.0 0.00 0.00 0.00 37 1016.5
20260830174454 101 251 2.0 5.0 0.00 0.00 0.00 37 1016.6
20260830173954 101 212 2.0 5.0 0.00 0.00 0.00 38 1016.7
20260830173447 100 138 1.0 5.0 0.00 0.00 0.00 37 1016.7
20260830172946 100 210 2.0 5.0 0.00 0.00 0.00 38 1016.8
20260830172446 100 143 2.0 5.0 0.00 0.00 0.00 36 1016.7
20260830172435 100 215 1.0 4.0 0.00 0.00 0.00 37 1016.9
20260830171442 100 217 1.0 3.0 0.00 0.00 0.00 38 1017.0
20260830170938 100 214 2.0 6.0 0.00 0.00 0.00 37 1017.0
20260830170438 100 184 2.0 6.0 0.00 0.00 0.00 38 1017.0
20260830165938 100 154 1.0 7.0 0.00 0.00 0.00 39 1017.1
20260830165440 99 147 1.0 7.0 0.00 0.00 0.00 39 1017.3
20260830164915 98 195 2.0 7.0 0.00 0.00 0.00 40 1017.4
20260830164356 97 179 2.0 8.0 0.00 0.00 0.00 39 1017.4
20260830163833 97 172 2.0 8.0 0.00 0.00 0.00 40 1017.4
20260830163334 97 154 2.0 6.0 0.00 0.00 0.00 39 1017.6
20260830162812 97 220 2.0 7.0 0.00 0.00 0.00 40 1017.5
20260830162245 96 158 2.0 7.0 0.00 0.00 0.00 40 1017.6
20260830161733 96 203 1.0 5.0 0.00 0.00 0.00 40 1017.6
20260830161232 96 144 1.0 5.0 0.00 0.00 0.00 42 1017.6
20260830160732 95 214 2.0 8.0 0.00 0.00 0.00 42 1017.6
20260830160705 95 172 2.0 8.0 0.00 0.00 0.00 41 1017.7
20260830155728 95 190 2.0 5.0 0.00 0.00 0.00 41 1017.7
20260830155204 95 187 2.0 6.0 0.00 0.00 0.00 43 1017.6
20260830154640 94 140 2.0 6.0 0.00 0.00 0.00 44 1017.5
20260830154123 94 144 2.0 6.0 0.00 0.00 0.00 43 1017.5
20260830153626 94 153 2.0 6.0 0.00 0.00 0.00 45 1017.5
20260830153545 93 162 2.0 6.0 0.00 0.00 0.00 45 1017.5
20260830152602 93 158 2.0 6.0 0.00 0.00 0.00 46 1017.5
20260830152045 92 142 2.0 5.0 0.00 0.00 0.00 47 1017.5
20260830152014 91 133 2.0 6.0 0.00 0.00 0.00 50 1017.5
20260830151035 91 133 2.0 6.0 0.00 0.00 0.00 48 1017.4
20260830150538 91 143 2.0 6.0 0.00 0.00 0.00 50 1017.3
20260830150033 91 196 2.0 7.0 0.00 0.00 0.00 50 1017.4
20260830145534 90 129 2.0 7.0 0.00 0.00 0.00 49 1017.4
20260830145032 90 193 1.0 4.0 0.00 0.00 0.00 51 1017.4
20260830144534 89 210 1.0 4.0 0.00 0.00 0.00 51 1017.4
20260830144019 89 203 1.0 4.0 0.00 0.00 0.00 53 1017.4
20260830143519 89 158 1.0 4.0 0.00 0.00 0.00 53 1017.3
20260830143457 88 179 1.0 6.0 0.00 0.00 0.00 54 1017.5
20260830142518 88 195 1.0 6.0 0.00 0.00 0.00 53 1017.4
20260830142016 87 205 1.0 3.0 0.00 0.00 0.00 55 1017.4
20260830141516 86 136 1.0 4.0 0.00 0.00 0.00 56 1017.5
20260830141016 86 154 1.0 4.0 0.00 0.00 0.00 57 1017.5
20260830140514 85 181 1.0 5.0 0.00 0.00 0.00 56 1017.5
20260830140013 85 116 0.0 5.0 0.00 0.00 0.00 57 1017.5
20260830135452 85 174 1.0 3.0 0.00 0.00 0.00 57 1017.5
20260830134939 85 211 1.0 2.0 0.00 0.00 0.00 57 1017.5
20260830134440 84 200 0.0 2.0 0.00 0.00 0.00 58 1017.5
20260830133938 84 140 0.0 2.0 0.00 0.00 0.00 59 1017.5
20260830133437 83 183 0.0 1.0 0.00 0.00 0.00 61 1017.5
20260830132940 82 199 0.0 1.0 0.00 0.00 0.00 62 1017.5
20260830132419 81 155 0.0 1.0 0.00 0.00 0.00 63 1017.4
20260830131919 80 128 0.0 1.0 0.00 0.00 0.00 63 1017.5
20260830131416 80 128 0.0 1.0 0.00 0.00 0.00 64 1017.4
20260830130909 79 96 0.0 1.0 0.00 0.00 0.00 65 1017.5
20260830130344 78 88 0.0 1.0 0.00 0.00 0.00 68 1017.4
20260830125843 77 74 0.0 0.0 0.00 0.00 0.00 67 1017.4
20260830125345 76 74 0.0 0.0 0.00 0.00 0.00 69 1017.4
20260830124823 76 74 0.0 1.0 0.00 0.00 0.00 70 1017.3
20260830124324 75 74 0.0 1.0 0.00 0.00 0.00 71 1017.3
20260830123756 74 74 0.0 0.0 0.00 0.00 0.00 73 1017.1
20260830123234 72 74 0.0 0.0 0.00 0.00 0.00 75 1017.1
20260830122715 71 74 0.0 0.0 0.00 0.00 0.00 77 1017.3
20260830122156 70 74 0.0 1.0 0.00 0.00 0.00 78 1017.1
20260830121656 69 74 0.0 1.0 0.00 0.00 0.00 79 1017.0
20260830121156 68 74 0.0 1.0 0.00 0.00 0.00 79 1017.0
20260830120654 68 74 0.0 0.0 0.00 0.00 0.00 79 1016.9
20260830120155 68 74 0.0 1.0 0.00 0.00 0.00 79 1016.8
20260830115629 68 74 0.0 1.0 0.00 0.00 0.00 78 1016.8
20260830115124 68 73 0.0 0.0 0.00 0.00 0.00 78 1016.8
20260830114557 68 73 0.0 0.0 0.00 0.00 0.00 78 1016.9
20260830114031 68 73 0.0 0.0 0.00 0.00 0.00 77 1016.7
20260830113529 68 73 0.0 0.0 0.00 0.00 0.00 77 1016.7
20260830113006 68 73 0.0 0.0 0.00 0.00 0.00 77 1016.7
20260830112441 68 73 0.0 0.0 0.00 0.00 0.00 76 1016.6
20260830111941 68 73 0.0 0.0 0.00 0.00 0.00 76 1016.7
20260830111435 68 73 0.0 0.0 0.00 0.00 0.00 76 1016.7
20260830110932 68 73 0.0 0.0 0.00 0.00 0.00 75 1016.6
20260830110405 69 73 0.0 0.0 0.00 0.00 0.00 75 1016.6
20260830110350 69 73 0.0 0.0 0.00 0.00 0.00 74 1016.6
20260830105346 69 73 0.0 0.0 0.00 0.00 0.00 74 1016.5
20260830104829 69 73 0.0 0.0 0.00 0.00 0.00 73 1016.5
20260830104328 69 73 0.0 0.0 0.00 0.00 0.00 73 1016.5
20260830103827 70 73 0.0 0.0 0.00 0.00 0.00 73 1016.4
20260830103328 70 73 0.0 0.0 0.00 0.00 0.00 73 1016.3
20260830102818 70 73 0.0 0.0 0.00 0.00 0.00 73 1016.3
20260830102315 70 73 0.0 0.0 0.00 0.00 0.00 73 1016.4
20260830101814 70 73 0.0 0.0 0.00 0.00 0.00 73 1016.4
20260830101740 70 73 0.0 0.0 0.00 0.00 0.00 72 1016.5
20260830100747 71 73 0.0 0.0 0.00 0.00 0.00 72 1016.5
20260830100242 71 73 0.0 0.0 0.00 0.00 0.00 72 1016.5
20260830095740 71 73 0.0 0.0 0.00 0.00 0.00 71 1016.5
20260830095239 71 73 0.0 0.0 0.00 0.00 0.00 71 1016.6
20260830095214 71 73 0.0 1.0 0.00 0.00 0.00 71 1016.6
20260830094712 71 73 0.0 1.0 0.00 0.00 0.00 70 1016.5
20260830093708 71 76 0.0 0.0 0.00 0.00 0.00 71 1016.5
20260830093203 71 76 0.0 0.0 0.00 0.00 0.00 70 1016.4
20260830092635 71 76 0.0 0.0 0.00 0.00 0.00 70 1016.5
20260830092621 71 76 0.0 0.0 0.00 0.00 0.00 70 1016.5